COSMOS 529

Satellite information

Favourite Embed

Satellite Type and Status

PAYLOADIN ORBIT

Key statistics

Satellite COSMOS 529 at a glance.

Uptime

19359

Days in orbit

Revolutions

≈ 12.6

Per day

Orbit

LEO

Low Earth Orbit

Inclination

74.0

Latest

Satellite identification and parameters

Extended collection of information and parameters for COSMOS 529.

Object identification

Identified? True

Debris? False

Object name: COSMOS 529

International designator: 1972-087B

Object number (NORAD): 6264

Object ID (CCSDS): 6264

Country: COMMONWEALTH OF INDEPENDENT STATES (CIS)

Current information (Y/N): Y

RCS size: MEDIUM

Orbital parameters

Period: 114.539 minutes

Inclination: 74.0334 deg

SMA: 7812.619 km

Apoapsis: 1466.77 km

Periapsis: 1402.199 km

RAAN: 303.8814 deg

Eccentricy: 0.00413249

Argument of periapsis: 124.8293 deg

Mean anomaly: 350.6472 deg

Mean motion: 12.57209822 rev/day

Mean motion (dot): 0.00000005 rev/day2

B* drag term: 0.00012236622 1/REarth

Two-line elements (TLE)

Creation date: Nov. 1, 2025, 7:40 p.m.

Reference frame: TEME

Reference center: EARTH

Epoch: Nov. 1, 2025, 10:54 a.m. UTC

TLE line 0: 0 COSMOS 529

TLE line 1: 1 06264U 72087B 25305.45428414 .00000005 00000-0 12237-3 0 9992

TLE line 2: 2 06264 74.0334 303.8814 0041325 124.8293 350.6472 12.57209822432376

Live tracking on map

Real-time ground track for satellite COSMOS 529.

In-orbit conjunctions

There are no conjunctions computed for COSMOS 529, at the moment. Check back to stay up to date, as we update our databases every day.

Go to all conjunctions

Associated space launch

Military communications satellites

COSMOS 529 was lifted into orbit during the mission ‘Kosmos-3M | Strela-1M 33-40’, on board a Kosmos-3M space rocket.

The launch took place on Nov. 1, 1972, 2:08 a.m. from 132/2.

For more information about the launch, click the button.

Launch to space Kosmos-3M | Strela-1M 33-40
Kosmos-3M | Strela-1M 33-40

Agency: N/A

Status: Launch Successful

Launch date: Nov. 1, 1972, 2:08 a.m. UTC

Rocket: Kosmos-3M

Launch pad: 132/2

Location: Plesetsk Cosmodrome, Russian Federation

...

Latest news about this satellite

There are no fresh news available about this satellite. Check back as we update our databases every day.


Newsletter sign-up

Weekly statistics, charts and insights to help you stay on top of the space industry.